ZF1RC George Town KY current weather conditions

sailwx.info

Wind from 078 at 1 knots gusting 1

Air temperature 23.9° C
Dewpoint 20.8° C

Last reported at 2015-May-28 03:50 UTC.
Time now 2015-May-28 06:02 UTC

Location: N 19°16' W 081°23'.
View on Google Maps.

See reports from other nearby stations

  
Tides and Currents Weather Stations Pressure Air Temp Water Temp Dewpoint Dewpoint Depression Visibility Wind Speed Wind Dir Waves Ship Positions
date/time (UTC)wind fromknots sea level pressurealtimeterstation pressurevisibilityair tempwater tempwave heightnotes
2015-May-28 03:50 078 1 gusting 1 23.9
2015-May-28 03:40 100 0 gusting 1 24.4
2015-May-28 03:30 088 0 gusting 2 24.4
2015-May-28 03:20 107 0 gusting 1 23.9
2015-May-28 03:10 086 1 gusting 2 24.4
2015-May-28 03:00 097 0 gusting 1 24.4
2015-May-28 02:50 094 0 gusting 1 24.4
2015-May-28 02:40 038 0 gusting 1 24.4
2015-May-28 02:30 101 1 gusting 1 24.4
2015-May-28 02:20 059 0 gusting 1 24.4
2015-May-28 02:10 077 1 gusting 1 25.0
2015-May-28 02:00 099 0 gusting 1 25.0
2015-May-28 01:50 086 1 gusting 2 25.0
2015-May-28 01:40 090 1 gusting 1 25.0
2015-May-28 01:30 077 0 gusting 1 25.6
2015-May-28 01:20 064 25.6
2015-May-28 01:10 148 0 gusting 2 25.6
2015-May-28 01:00 090 2 gusting 5 26.1
2015-May-28 00:50 063 1 gusting 4 26.1
2015-May-28 00:40 094 1 gusting 4 26.1
2015-May-28 00:30 091 1 gusting 4 26.1
2015-May-28 00:20 063 2 gusting 5 26.1
2015-May-28 00:10 072 1 gusting 6 26.7
2015-May-28 00:00 057 2 gusting 4 26.7
2015-May-27 23:50 041 4 gusting 5 26.7
2015-May-27 23:40 096 3 gusting 6 27.2
2015-May-27 23:30 078 2 gusting 6 27.2
2015-May-27 23:20 071 5 gusting 6 27.2
2015-May-27 23:10 036 5 gusting 6 27.8
2015-May-27 23:00 087 3 gusting 5 27.8
2015-May-27 22:54 090 4 gusting 5 28.3
2015-May-27 22:50 074 6 gusting 7 28.3
2015-May-27 22:40 070 4 gusting 6 28.3
2015-May-27 22:30 062 5 gusting 7 28.3
2015-May-27 22:20 067 6 gusting 6 28.3
2015-May-27 22:10 030 7 gusting 8 28.3
2015-May-27 22:00 085 4 gusting 10 28.3
2015-May-27 21:50 036 5 gusting 7 28.3
2015-May-27 21:40 100 4 gusting 7 28.9
2015-May-27 21:30 062 6 gusting 7 28.9
2015-May-27 21:20 345 5 gusting 8 28.9
2015-May-27 21:10 098 6 gusting 10 28.9
2015-May-27 21:00 066 4 gusting 7 28.9
2015-May-27 20:50 038 6 gusting 12 29.4
2015-May-27 20:40 063 6 gusting 11 28.9
2015-May-27 20:30 039 7 gusting 10 29.4
2015-May-27 20:20 047 10 gusting 13 28.9
2015-May-27 20:10 054 6 gusting 7 28.9
2015-May-27 20:00 014 9 gusting 12 28.9
2015-May-27 19:50 041 4 gusting 7 28.3
2015-May-27 19:40 095 7 gusting 7 28.9
2015-May-27 19:30 092 1 gusting 7 28.9
2015-May-27 19:20 088 7 gusting 13 28.3
2015-May-27 19:10 099 2 gusting 12 28.3
2015-May-27 19:00 103 4 gusting 5 28.3
2015-May-27 18:50 140 0 gusting 5 28.3
2015-May-27 18:40 108 5 gusting 7 28.3
2015-May-27 18:30 098 4 gusting 6 28.3
2015-May-27 18:20 084 3 gusting 6 28.9
2015-May-27 18:10 043 1 gusting 12 28.9
2015-May-27 18:00 103 4 gusting 10 28.9
2015-May-27 17:50 098 6 gusting 6 29.4
2015-May-27 17:40 079 5 gusting 11 29.4
2015-May-27 17:30 075 5 gusting 7 29.4
2015-May-27 17:20 086 6 gusting 11 29.4
2015-May-27 17:10 053 8 gusting 11 29.4
2015-May-27 17:00 089 8 gusting 12 29.4
2015-May-27 16:50 089 8 gusting 11 29.4
2015-May-27 16:40 071 7 gusting 8 28.9
2015-May-27 16:30 106 6 gusting 7 28.9
2015-May-27 16:20 103 5 gusting 10 28.3
2015-May-27 16:10 098 8 gusting 8 28.3
2015-May-27 16:00 058 4 gusting 7 27.8
2015-May-27 15:50 023 1 gusting 6 28.3
2015-May-27 15:40 082 5 gusting 10 27.8
2015-May-27 15:30 086 10 gusting 11 27.8
2015-May-27 15:20 071 7 gusting 8 27.2
2015-May-27 15:10 099 3 gusting 10 27.2
2015-May-27 15:00 062 6 gusting 6 27.2
2015-May-27 14:50 089 2 gusting 6 27.2
2015-May-27 14:40 042 2 gusting 10 26.7
2015-May-27 14:30 091 5 gusting 8 26.7
2015-May-27 14:20 028 5 gusting 6 26.1
2015-May-27 14:10 120 4 gusting 10 25.6
2015-May-27 14:00 098 5 gusting 8 25.6
2015-May-27 13:50 085 4 gusting 10 26.1
2015-May-27 13:40 083 6 gusting 11 25.6
2015-May-27 13:30 079 5 gusting 6 25.6
2015-May-27 13:20 044 4 gusting 5 25.6
2015-May-27 13:10 125 4 gusting 6 25.0
2015-May-27 13:00 032 3 gusting 4 25.0
2015-May-27 12:50 049 4 gusting 5 24.4
2015-May-27 12:40 050 5 gusting 7 24.4
2015-May-27 12:30 103 3 gusting 6 25.0
2015-May-27 12:20 038 0 gusting 1 25.0
2015-May-27 12:10 052 1 gusting 2 25.0
2015-May-27 12:00 052 0 gusting 0 24.4
2015-May-27 11:50 090 0 gusting 1 24.4
2015-May-27 11:40 031 0 gusting 4 24.4
2015-May-27 11:30 042 2 gusting 4 24.4
2015-May-27 11:20 058 1 gusting 4 23.9
2015-May-27 11:10 055 2 gusting 6 23.9
2015-May-27 11:00 098 6 gusting 7 23.9
2015-May-27 10:50 105 7 gusting 8 24.4
2015-May-27 10:40 096 1 gusting 2 25.0
2015-May-27 10:30 070 0 gusting 1 24.4
2015-May-27 10:20 092 2 gusting 2 24.4
2015-May-27 10:10 065 0 gusting 0 24.4
2015-May-27 10:00 093 0 gusting 1 24.4
2015-May-27 09:50 077 0 gusting 1 23.9
2015-May-27 09:40 052 23.9
2015-May-27 09:30 104 24.4
2015-May-27 09:20 057 24.4
2015-May-27 09:10 060 0 gusting 1 24.4
2015-May-27 09:00 076 0 gusting 0 23.9
2015-May-27 08:50 091 24.4
2015-May-27 08:40 079 0 gusting 0 24.4
2015-May-27 08:30 098 0 gusting 0 24.4
2015-May-27 08:20 076 0 gusting 1 24.4
2015-May-27 08:10 102 0 gusting 1 24.4
2015-May-27 08:00 090 1 gusting 1 24.4
2015-May-27 07:50 089 0 gusting 1 24.4
2015-May-27 07:40 074 1 gusting 1 24.4
2015-May-27 07:30 063 0 gusting 1 24.4
2015-May-27 07:20 039 0 gusting 0 24.4
2015-May-27 07:10 074 0 gusting 0 24.4
2015-May-27 07:00 056 24.4
2015-May-27 06:50 071 0 gusting 1 24.4
2015-May-27 06:40 044 0 gusting 0 24.4
2015-May-27 06:30 061 0 gusting 0 24.4
2015-May-27 06:20 054 0 gusting 1 24.4
2015-May-27 06:10 046 0 gusting 1 24.4
2015-May-27 06:00 082 1 gusting 1 24.4
2015-May-27 05:50 067 1 gusting 1 24.4
2015-May-27 05:40 072 1 gusting 1 24.4
2015-May-27 05:30 083 0 gusting 1 24.4
2015-May-27 05:20 088 1 gusting 1 24.4
2015-May-27 05:10 079 0 gusting 2 24.4
2015-May-27 05:00 110 0 gusting 2 24.4
2015-May-27 04:50 109 2 gusting 2 24.4
2015-May-27 04:40 101 2 gusting 2 24.4
2015-May-27 04:30 060 0 gusting 2 25.0
2015-May-27 04:20 085 1 gusting 2 24.4
2015-May-27 04:10 086 1 gusting 2 25.0
2015-May-27 04:00 089 0 gusting 2 25.0
2015-May-27 03:50 082 1 gusting 2 25.0
2015-May-27 03:40 096 2 gusting 4 24.4
2015-May-27 03:30 085 1 gusting 2 24.4
2015-May-27 03:20 089 2 gusting 2 24.4
2015-May-27 03:10 063 1 gusting 1 24.4
2015-May-27 03:00 070 1 gusting 4 24.4
2015-May-27 02:50 084 1 gusting 2 24.4
2015-May-27 02:40 090 1 gusting 4 24.4
2015-May-27 02:30 083 1 gusting 2 24.4
2015-May-27 02:20 089 1 gusting 2 25.0
2015-May-27 02:10 092 1 gusting 1 25.0
2015-May-27 02:00 089 1 gusting 2 25.0
2015-May-27 01:50 091 1 gusting 2 25.0
2015-May-27 01:40 072 1 gusting 4 25.0
2015-May-27 01:30 097 1 gusting 1 25.0
2015-May-27 01:20 093 1 gusting 1 25.0
2015-May-27 01:10 109 0 gusting 2 25.0
2015-May-27 01:00 077 2 gusting 2 25.0
2015-May-27 00:50 103 2 gusting 2 25.0
2015-May-27 00:40 078 2 gusting 5 25.0
2015-May-27 00:30 058 1 gusting 2 25.0
2015-May-27 00:20 087 2 gusting 2 25.0
2015-May-27 00:10 094 2 gusting 4 25.0
2015-May-27 00:00 090 2 gusting 4 25.0
2015-May-26 23:50 077 2 gusting 4 25.0
2015-May-26 23:40 091 2 gusting 4 25.0
2015-May-26 23:30 089 1 gusting 5 25.6
2015-May-26 23:20 116 4 gusting 6 26.1
2015-May-26 23:10 090 0 gusting 5 26.1
2015-May-26 23:00 076 2 gusting 4 26.1
2015-May-26 22:54 092 1 gusting 2 26.1
2015-May-26 22:50 074 3 gusting 4 26.1
2015-May-26 22:40 090 2 gusting 2 26.1
2015-May-26 22:30 104 1 gusting 2 25.0
2015-May-26 22:20 201 0 gusting 0 24.4
2015-May-26 22:10 026 2 gusting 13 25.0
2015-May-26 22:00 074 1 gusting 4 25.0
2015-May-26 21:50 082 5 gusting 7 26.1
2015-May-26 21:40 116 3 gusting 5 28.9
2015-May-26 21:30 169 29.4
2015-May-26 21:20 297 0 gusting 4 29.4
2015-May-26 21:10 198 28.9
2015-May-26 21:00 178 0 gusting 2 28.9
2015-May-26 20:50 026 28.9
2015-May-26 20:40 312 0 gusting 2 29.4
2015-May-26 20:30 042 30.0
2015-May-26 20:20 123 1 gusting 2 30.0
2015-May-26 20:10 222 0 gusting 1 29.4
2015-May-26 20:00 127 0 gusting 2 29.4
2015-May-26 19:50 283 0 gusting 4 29.4
2015-May-26 19:40 100 0 gusting 4 28.9
2015-May-26 19:30 178 2 gusting 5 28.9
2015-May-26 19:20 230 0 gusting 1 29.4
2015-May-26 19:10 290 2 gusting 6 29.4
2015-May-26 19:00 262 30.0
2015-May-26 18:50 214 0 gusting 0 30.6
2015-May-26 18:40 051 30.6
2015-May-26 18:30 169 30.6
2015-May-26 18:20 207 30.0
2015-May-26 18:10 253 0 gusting 1 29.4
2015-May-26 18:00 090 1 gusting 2 29.4
2015-May-26 17:50 149 1 gusting 2 29.4
2015-May-26 17:40 267 1 gusting 2 29.4
2015-May-26 17:30 099 3 gusting 8 30.6
2015-May-26 17:20 123 31.7
2015-May-26 17:10 047 1 gusting 4 31.7
2015-May-26 17:00 130 0 gusting 5 31.7
2015-May-26 16:50 085 31.1
2015-May-26 16:40 107 31.1
2015-May-26 16:30 229 0 gusting 2 31.7
2015-May-26 16:20 266 31.1
2015-May-26 16:10 210 1 gusting 1 31.1
2015-May-26 16:00 106 5 gusting 7 31.7
2015-May-26 15:50 337 0 gusting 0 31.7
2015-May-26 15:40 133 31.1
2015-May-26 15:30 243 1 gusting 2 30.6
2015-May-26 15:20 076 1 gusting 5 31.1
2015-May-26 15:10 036 31.1
2015-May-26 15:00 055 1 gusting 4 31.1
2015-May-26 14:50 278 30.6
2015-May-26 14:40 124 0 gusting 1 30.6
2015-May-26 14:30 115 0 gusting 7 30.6
2015-May-26 14:20 167 1 gusting 2 30.0
2015-May-26 14:10 303 0 gusting 6 29.4
2015-May-26 14:00 174 1 gusting 7 28.9
2015-May-26 13:50 213 0 gusting 8 29.4
2015-May-26 13:40 081 6 gusting 8 28.9
2015-May-26 13:30 235 0 gusting 2 28.9
2015-May-26 13:20 175 1 gusting 6 28.9
2015-May-26 13:10 085 2 gusting 5 27.8
2015-May-26 13:00 118 3 gusting 6 27.8
2015-May-26 12:50 086 4 gusting 7 27.8
2015-May-26 12:40 117 3 gusting 5 27.8
2015-May-26 12:30 067 0 gusting 5 27.8
2015-May-26 12:20 072 1 gusting 6 27.8
2015-May-26 12:10 100 4 gusting 6 27.2
2015-May-26 12:00 106 0 gusting 6 26.7
2015-May-26 11:50 057 5 gusting 6 26.1
2015-May-26 11:40 102 1 gusting 4 26.1
2015-May-26 11:30 090 1 gusting 2 25.6
2015-May-26 11:20 055 0 gusting 2 25.0
2015-May-26 11:10 089 1 gusting 1 25.0
2015-May-26 11:00 093 1 gusting 2 25.0
2015-May-26 10:50 078 1 gusting 4 25.0
2015-May-26 10:40 091 1 gusting 4 25.0
2015-May-26 10:30 087 1 gusting 2 25.0
2015-May-26 10:20 070 1 gusting 2 25.0
2015-May-26 10:10 082 1 gusting 5 25.0
2015-May-26 10:00 087 2 gusting 4 25.0
2015-May-26 09:50 096 1 gusting 1 25.0
2015-May-26 09:40 082 1 gusting 2 25.0
2015-May-26 09:30 091 0 gusting 2 25.0
2015-May-26 09:20 058 0 gusting 1 25.0
2015-May-26 09:10 078 1 gusting 1 25.0
2015-May-26 09:00 076 1 gusting 2 25.0
2015-May-26 08:50 053 0 gusting 2 25.0
2015-May-26 08:40 119 0 gusting 2 25.0
2015-May-26 08:30 082 1 gusting 1 25.0
2015-May-26 08:20 077 1 gusting 4 25.0
2015-May-26 08:10 051 2 gusting 4 25.0
2015-May-26 08:00 037 1 gusting 4 25.6
2015-May-26 07:50 110 0 gusting 2 25.6
2015-May-26 07:40 096 1 gusting 2 25.6
2015-May-26 07:30 096 2 gusting 2 25.6
2015-May-26 07:20 078 1 gusting 5 25.6
2015-May-26 07:10 102 2 gusting 4 25.6
2015-May-26 07:00 087 1 gusting 4 25.6
2015-May-26 06:50 082 2 gusting 2 26.1
2015-May-26 06:40 052 0 gusting 1 26.1
2015-May-26 06:30 146 26.1
2015-May-26 06:20 060 1 gusting 5 25.6
2015-May-26 06:10 099 0 gusting 4 25.6
2015-May-26 06:00 101 1 gusting 5 25.6